Driggs, ID

12:47 AM MDT on August 19, 2017 (GMT -0600)
Driggs

Weather History for KDIJ - November, 2012

Change the Weather History Date:

Wednesday, November 14, 2012

  Actual Average (KJAC) Record (KJAC)
Temperature  
Mean Temperature 30 °F -  
Max Temperature 32 °F 38 °F 55 °F (1967)
Min Temperature 28 °F 13 °F -8 °F (1982)
Degree Days  
Heating Degree Days 34    
Moisture  
Dew Point 29 °F    
Average Humidity 92    
Maximum Humidity 100    
Minimum Humidity 70    
Precipitation  
Precipitation 0.08 in - - ()
Sea Level Pressure  
Sea Level Pressure 30.23 in    
Wind  
Wind Speed 6 mph (South)    
Max Wind Speed 12 mph    
Max Gust Speed -    
Visibility 5 miles    
Events Fog , Snow    
Averages and records for this station are not official NWS values.
T = Trace of Precipitation, MM = Missing Value Source: NWS Daily Summary

Daily Weather History Graph

Daily Weather History Graph

Search for Another Location

Airport or City:

Trip Planner

Search our weather history database for the weather conditions in past years. The results will help you decide how hot, cold, wet, or windy it might be!

Date:

Astronomy

Nov. 14, 2012 Rise Set
Actual Time 7:18 AM MST 4:59 PM MST
Civil Twilight 6:47 AM MST 5:30 PM MST
Nautical Twilight 6:12 AM MST 6:04 PM MST
Astronomical Twilight 5:38 AM MST 6:38 PM MST
Moon 8:13 AM MST (11/14) 5:49 PM MST (11/14)
Length of Visible Light 10h 43m
Length of Day
9h 41m
New Moon, 1% of the Moon is Illuminated
Nov 14
New Moon
Nov 20
First Quarter
Nov 28
Full
Dec 6
Last Quarter
Dec 13
New

Hourly Weather History & Observations

Time (MST) Temp. Windchill Dew Point Humidity Pressure Visibility Wind Dir Wind Speed Gust Speed Precip Events Conditions
12:56 AM 32.0 °F 24.8 °F 25.2 °F 76% 30.20 in 10.0 mi South 8.1 mph - N/A   Overcast
1:56 AM 31.1 °F 26.4 °F 25.2 °F 79% 30.20 in 10.0 mi South 4.6 mph - N/A   Mostly Cloudy
2:56 AM 31.1 °F 23.7 °F 25.2 °F 79% 30.20 in 10.0 mi SSE 8.1 mph - N/A   Overcast
3:56 AM 32.9 °F 24.1 °F 24.1 °F 70% 30.20 in 10.0 mi SSW 11.5 mph - N/A   Overcast
4:56 AM 31.1 °F 23.7 °F 26.1 °F 82% 30.22 in 10.0 mi South 8.1 mph - N/A   Overcast
5:56 AM 31.1 °F 24.5 °F 27.1 °F 85% 30.21 in 10.0 mi South 6.9 mph - 0.00 in   Overcast
7:04 AM 30.2 °F 25.4 °F 26.6 °F 86% 30.20 in 2.5 mi SSE 4.6 mph - 0.00 in Snow Light Snow
7:09 AM 30.2 °F 25.4 °F 28.4 °F 93% 30.20 in 3.0 mi SSE 4.6 mph - 0.00 in Snow Light Snow
7:19 AM 30.2 °F 24.3 °F 28.4 °F 93% 30.20 in 2.5 mi SSE 5.8 mph - 0.00 in Snow Light Snow
7:38 AM 30.2 °F 24.3 °F 28.4 °F 93% 30.20 in 3.0 mi SSE 5.8 mph - 0.00 in Snow Light Snow
7:44 AM 30.2 °F 24.3 °F 28.4 °F 93% 30.20 in 2.5 mi SSE 5.8 mph - 0.00 in Snow Light Snow
7:56 AM 31.1 °F 24.5 °F 28.0 °F 88% 30.20 in 5.0 mi SSE 6.9 mph - 0.00 in Snow Light Snow
8:31 AM 30.2 °F 22.6 °F 28.4 °F 93% 30.21 in 2.5 mi South 8.1 mph - 0.00 in Snow Light Snow
8:42 AM 30.2 °F 24.3 °F 28.4 °F 93% 30.21 in 1.2 mi SSW 5.8 mph - 0.00 in Snow Light Snow
8:47 AM 30.2 °F 22.6 °F 28.4 °F 93% 30.21 in 1.0 mi SSW 8.1 mph - 0.00 in Snow Light Snow
8:56 AM 31.1 °F 25.4 °F 29.1 °F 92% 30.21 in 1.0 mi SW 5.8 mph - 0.00 in Snow Light Snow
8:58 AM 30.2 °F 24.3 °F 28.4 °F 93% 30.21 in 1.0 mi SSW 5.8 mph - 0.00 in Snow Light Snow
9:05 AM 30.2 °F 24.3 °F 28.4 °F 93% 30.21 in 1.2 mi SW 5.8 mph - 0.00 in Snow Light Snow
9:11 AM 30.2 °F 24.3 °F 28.4 °F 93% 30.21 in 2.0 mi SSW 5.8 mph - 0.00 in Snow Light Snow
9:15 AM 30.2 °F 25.4 °F 28.4 °F 93% 30.21 in 3.0 mi SSW 4.6 mph - 0.00 in Snow Light Snow
9:30 AM 30.2 °F 26.7 °F 28.4 °F 93% 30.21 in 5.0 mi SSE 3.5 mph - 0.00 in Snow Light Snow
9:40 AM 30.2 °F 26.7 °F 28.4 °F 93% 30.21 in 4.0 mi SE 3.5 mph - 0.00 in Snow Light Snow
9:56 AM 32.0 °F 26.4 °F 29.1 °F 89% 30.21 in 1.0 mi SSE 5.8 mph - 0.00 in Snow Light Snow
10:05 AM 32.0 °F 26.4 °F 28.4 °F 87% 30.22 in 0.8 mi SSE 5.8 mph - 0.00 in Snow Light Snow
10:08 AM 32.0 °F 26.4 °F 30.2 °F 93% 30.22 in 1.0 mi SSE 5.8 mph - 0.00 in Snow Light Snow
10:16 AM 32.0 °F 26.4 °F 30.2 °F 93% 30.22 in 0.8 mi SSE 5.8 mph - 0.00 in Snow Light Snow
10:45 AM 32.0 °F 26.4 °F 30.2 °F 93% 30.22 in 1.0 mi South 5.8 mph - 0.00 in Snow Light Snow
10:56 AM 32.0 °F 25.6 °F 30.0 °F 92% 30.22 in 0.8 mi South 6.9 mph - 0.00 in Snow Light Snow
11:44 AM 32.0 °F 26.4 °F 30.2 °F 93% 30.22 in 0.5 mi South 5.8 mph - 0.01 in Fog , Snow Light Snow
11:56 AM 32.0 °F 25.6 °F 30.0 °F 92% 30.20 in 0.8 mi South 6.9 mph - 0.01 in Snow Light Snow
12:09 PM 32.0 °F 26.4 °F 30.2 °F 93% 30.21 in 0.5 mi South 5.8 mph - 0.00 in Fog , Snow Light Snow
12:21 PM 32.0 °F 26.4 °F 30.2 °F 93% 30.21 in 0.8 mi South 5.8 mph - 0.01 in Snow Light Snow
12:34 PM 30.2 °F 26.7 °F 30.2 °F 100% 30.21 in 0.5 mi Variable 3.5 mph - 0.01 in Fog , Snow Light Snow
12:49 PM 32.0 °F 26.4 °F 30.2 °F 93% 30.21 in 0.8 mi NNW 5.8 mph - 0.01 in Snow Light Snow
12:56 PM 32.0 °F 28.7 °F 31.1 °F 96% 30.20 in 0.8 mi North 3.5 mph - 0.02 in Snow Light Snow
1:03 PM 32.0 °F 28.7 °F 30.2 °F 93% 30.21 in 1.0 mi NNW 3.5 mph - 0.00 in Snow Light Snow
1:11 PM 32.0 °F - 30.2 °F 93% 30.21 in 0.8 mi Calm Calm - 0.01 in Snow Light Snow
1:22 PM 30.2 °F - 30.2 °F 100% 30.21 in 1.0 mi Calm Calm - 0.02 in Snow Light Snow
1:41 PM 30.2 °F - 30.2 °F 100% 30.21 in 0.8 mi Calm Calm - 0.03 in Snow Light Snow
1:46 PM 30.2 °F - 30.2 °F 100% 30.21 in 1.2 mi Calm Calm - 0.03 in Snow Light Snow
1:49 PM 30.2 °F - 30.2 °F 100% 30.21 in 2.0 mi Calm Calm - 0.03 in Snow Light Snow
1:56 PM 31.1 °F - 30.0 °F 96% 30.21 in 6.0 mi Calm Calm - 0.03 in Snow Light Snow
2:29 PM 32.0 °F 27.5 °F 30.2 °F 93% 30.21 in 10.0 mi South 4.6 mph - 0.01 in Snow Light Snow
2:56 PM 31.1 °F 26.4 °F 30.0 °F 96% 30.22 in 10.0 mi WNW 4.6 mph - 0.01 in Snow Light Snow
3:08 PM 30.2 °F 24.3 °F 28.4 °F 93% 30.22 in 8.0 mi WNW 5.8 mph - 0.01 in Snow Light Snow
3:38 PM 30.2 °F 25.4 °F 30.2 °F 100% 30.22 in 4.0 mi NW 4.6 mph - 0.01 in Snow Light Snow
3:56 PM 31.1 °F 27.7 °F 30.0 °F 96% 30.21 in 10.0 mi North 3.5 mph - 0.01 in Snow Light Snow
4:06 PM 30.2 °F 26.7 °F 30.2 °F 100% 30.22 in 10.0 mi North 3.5 mph - 0.00 in Snow Light Snow
4:56 PM 31.1 °F 26.4 °F 29.1 °F 92% 30.23 in 10.0 mi NNE 4.6 mph - 0.00 in   Overcast
5:07 PM 30.2 °F - 28.4 °F 93% 30.23 in 10.0 mi Calm Calm - N/A   Overcast
5:56 PM 30.0 °F 25.2 °F 28.0 °F 92% 30.25 in 10.0 mi NW 4.6 mph - 0.00 in Snow Light Snow
6:56 PM 30.0 °F 24.1 °F 28.0 °F 92% 30.26 in 10.0 mi NNE 5.8 mph - 0.00 in Snow Light Snow
7:21 PM 30.2 °F 25.4 °F 28.4 °F 93% 30.26 in 10.0 mi NE 4.6 mph - 0.00 in Snow Light Snow
7:56 PM 30.0 °F 26.5 °F 28.0 °F 92% 30.28 in 10.0 mi NNE 3.5 mph - 0.00 in Snow Light Snow
8:03 PM 30.2 °F 26.7 °F 28.4 °F 93% 30.28 in 10.0 mi NNE 3.5 mph - 0.00 in Snow Light Snow
8:56 PM 30.0 °F - 28.0 °F 92% 30.29 in 10.0 mi Calm Calm - 0.00 in Snow Light Snow
9:03 PM 30.2 °F - 28.4 °F 93% 30.29 in 10.0 mi Calm Calm - 0.00 in Snow Light Snow
9:12 PM 30.2 °F - 28.4 °F 93% 30.29 in 10.0 mi Calm Calm - 0.00 in   Overcast
9:25 PM 30.2 °F 26.7 °F 28.4 °F 93% 30.29 in 10.0 mi NW 3.5 mph - 0.00 in   Overcast
9:56 PM 29.1 °F 25.4 °F 28.0 °F 96% 30.30 in 10.0 mi NNW 3.5 mph - 0.00 in   Overcast
10:56 PM 29.1 °F - 28.0 °F 96% 30.31 in 10.0 mi Calm Calm - 0.00 in   Overcast
11:56 PM 28.0 °F 22.8 °F 27.1 °F 96% 30.32 in 1.8 mi SE 4.6 mph - 0.00 in   Overcast